Weather in Vysokoye

Russia / Kaluga Oblast     53°55′01″N   34°56′45″E
temp.,
°C
wind,
m/s
gust,
m/s
humid.,
%
clouds,
%
prec.,
mm/h
press.,
hPa
HPBL,
m
26 may, thu
thu2600:00+6s38924 0.0 1014134
03:00+6wsw239379 0.0 101340
06:00+8sw24865 0.0 101198
09:00+16ssw356396 0.0 1008552
12:00+16s5866100 0.1 10061006
15:00+11se41096100 3.9 1003843
18:00+10w1398100 4.1 1001240
21:00+10nw71395100 5.2 1002883
27 may, fri
fri2700:00+7w413965 0.3 1004417
03:00+6wsw4129997 0.3 1003328
06:00+10w4129467 1.6 1003634
09:00+9w61191100 1.7 10041033
12:00+11w6117960 0.3 10051237
15:00+15w7115737 1.1 10041935
18:00+14wsw6116299 0.1 10031578
21:00+11sw41080100 0.1 1003502
28 may, sat
sat2800:00+10sw41094100 0.3 1002514
03:00+9wsw4119694 1.0 1001621
06:00+7wsw6139385 0.2 1002854
09:00+10wsw712679 0.2 10031297
12:00+10wsw6128041 0.6 10051402
15:00+14wsw7115173 1.1 10052300
18:00+13wsw611655 0.3 10071441
21:00+8sw368388 0.3 100893
29 may, sun
sun2900:00+7ssw41188100 0.1 1009297
03:00+7ssw389696 0.4 1009230
06:00+6sw499628 0.0 1010346
09:00+11wsw57713 0.0 1011935
12:00+15wsw575084 0.0 10121982
15:00+15sw585986 0.2 10141639
18:00+16sw47605 0.3 10141563
21:00+10ssw3690100 0.3 1017124
30 may, mon
mon3000:00+8ssw389631 0.0 1018152
03:00+7s3696100 0.0 1018107
06:00+8s389239 0.0 1019218
09:00+15s476565 0.0 1019671
12:00+17s3553100 0.0 10191622
15:00+16s1366100 0.0 1018348
18:00+13n3486100 0.3 101878
21:00+12ene4894100 0.6 1018205